This is the latest recevied weather packets stored in our database for station/object KI6SYE. If no packets are shown the sender has not sent any weather packets the latest 10 day(s).
| Time | Temp. | Humidity | Pressure | Rain* | Wind** | Luminosity | Snow |
|---|---|---|---|---|---|---|---|
| 1777996729 | 15.56° C | 80% | 1014.2 hPa | 0 mm | - | 447 W/m² | - |
| 1777996425 | 15.56° C | 79% | 1013.9 hPa | 0 mm | - | 424 W/m² | - |
| 1777996122 | 16.11° C | 77% | 1014 hPa | 0 mm | - | 407 W/m² | - |
| 1777995818 | 15.56° C | 77% | 1014.1 hPa | 0 mm | - | 392 W/m² | - |
| 1777995515 | 15° C | 78% | 1014.1 hPa | 0 mm | - | 373 W/m² | - |
| 1777995212 | 15° C | 80% | 1014.2 hPa | 0 mm | - | 357 W/m² | - |
| 1777994909 | 15° C | 81% | 1014 hPa | 0 mm | - | 339 W/m² | - |
| 1777994606 | 15° C | 81% | 1014 hPa | 0 mm | - | 322 W/m² | - |
| 1777994306 | 15° C | 82% | 1014.1 hPa | 0 mm | - | 306 W/m² | - |
| 1777994003 | 15° C | 83% | 1013.9 hPa | 0 mm | - | 286 W/m² | - |
| 1777993700 | 15° C | 82% | 1014.1 hPa | 0 mm | - | 272 W/m² | - |
| 1777993397 | 15° C | 82% | 1014 hPa | 0 mm | - | 251 W/m² | - |
| 1777993091 | 15° C | 83% | 1013.9 hPa | 0 mm | - | 234 W/m² | - |
| 1777992790 | 15° C | 83% | 1014 hPa | 0 mm | - | 218 W/m² | - |
| 1777992487 | 15° C | 84% | 1013.9 hPa | 0 mm | - | 191 W/m² | - |
| 1777992185 | 15° C | 84% | 1013.8 hPa | 0 mm | - | 187 W/m² | - |
| 1777991881 | 14.44° C | 85% | 1013.8 hPa | 0 mm | - | 164 W/m² | - |
| 1777991579 | 14.44° C | 85% | 1013.7 hPa | 0 mm | - | 98 W/m² | - |
| 1777991276 | 14.44° C | 85% | 1013.7 hPa | 0 mm | - | 118 W/m² | - |
| 1777990973 | 14.44° C | 85% | 1013.6 hPa | 0 mm | - | 98 W/m² | - |
| 1777990671 | 14.44° C | 85% | 1013.9 hPa | 0 mm | - | 93 W/m² | - |
| 1777990368 | 14.44° C | 85% | 1013.6 hPa | 0 mm | - | 85 W/m² | - |
| 1777990064 | 13.89° C | 86% | 1013.7 hPa | 0 mm | - | 53 W/m² | - |
| 1777989761 | 13.89° C | 86% | 1013.7 hPa | 0 mm | - | 45 W/m² | - |
| 1777989457 | 13.89° C | 87% | 1013.6 hPa | 0 mm | - | 37 W/m² | - |
* Rain latest hour (hover to see other rain measurements)
** Current wind speed in m/s (hover to see current wind gust speed)